Hobbs, NM

12:14 PM MST on January 20, 2017 (GMT -0700)
Lea County Regional

Weather History for KHOB - December, 2012

Change the Weather History Date:

Tuesday, December 25, 2012

  Actual Average Record
Temperature  
Mean Temperature 32 °F -  
Max Temperature 44 °F 53 °F 78 °F (1955)
Min Temperature 17 °F 26 °F 12 °F (1952)
Degree Days  
Heating Degree Days 34    
Moisture  
Dew Point 15 °F    
Average Humidity 61    
Maximum Humidity 80    
Minimum Humidity 38    
Precipitation  
Precipitation 0.00 in - - ()
Sea Level Pressure  
Sea Level Pressure 30.05 in    
Wind  
Wind Speed 16 mph (NNW)    
Max Wind Speed 28 mph    
Max Gust Speed 33 mph    
Visibility 10 miles    
Events      
Averages and records for this station are not official NWS values.
T = Trace of Precipitation, MM = Missing Value Source: NWS Daily Summary

Daily Weather History Graph

Daily Weather History Graph

Search for Another Location

Airport or City:

Trip Planner

Search our weather history database for the weather conditions in past years. The results will help you decide how hot, cold, wet, or windy it might be!

Date:

Astronomy

Dec. 25, 2012 Rise Set
Actual Time 6:53 AM MST 4:53 PM MST
Civil Twilight 6:25 AM MST 5:20 PM MST
Nautical Twilight 5:55 AM MST 5:51 PM MST
Astronomical Twilight 5:24 AM MST 6:21 PM MST
Moon 3:01 PM MST (12/25) 4:29 AM MST (12/25)
Length of Visible Light 10h 54m
Length of Day
10h 00m
Waxing Gibbous, 94% of the Moon is Illuminated
Dec 25
Waxing Gibbous
Dec 28
Full
Jan 4
Last Quarter
Jan 11
New
Jan 18
First Quarter

Hourly Weather History & Observations

Time (MST) Temp. Windchill Dew Point Humidity Pressure Visibility Wind Dir Wind Speed Gust Speed Precip Events Conditions
12:55 AM 44.6 °F 38.1 °F 32.0 °F 61% 29.67 in 10.0 mi WSW 13.8 mph 20.7 mph N/A   Clear
1:35 AM 42.8 °F 39.3 °F 32.0 °F 66% 29.67 in 10.0 mi West 5.8 mph - N/A   Clear
2:15 AM 41.0 °F 34.7 °F 32.0 °F 70% 29.69 in 10.0 mi WSW 10.4 mph - N/A   Scattered Clouds
2:35 AM 41.0 °F 32.8 °F 32.0 °F 70% 29.69 in 10.0 mi West 16.1 mph 20.7 mph N/A   Clear
2:55 AM 41.0 °F 33.9 °F 32.0 °F 70% 29.70 in 10.0 mi West 12.7 mph - N/A   Clear
3:15 AM 39.2 °F 32.0 °F 30.2 °F 70% 29.70 in 10.0 mi West 11.5 mph - N/A   Clear
3:55 AM 37.4 °F 29.3 °F 28.4 °F 70% 29.71 in 10.0 mi West 12.7 mph - N/A   Clear
5:50 AM 39.2 °F 28.0 °F 24.8 °F 56% 29.76 in 10.0 mi West 26.5 mph 33.4 mph N/A   Clear
6:50 AM 28.4 °F 14.4 °F 23.0 °F 80% 29.86 in 8.0 mi North 23.0 mph 32.2 mph N/A   Overcast
7:50 AM 26.6 °F 11.7 °F 17.6 °F 69% 29.93 in 8.0 mi NNW 24.2 mph 32.2 mph N/A   Mostly Cloudy
8:50 AM 26.6 °F 12.4 °F 14.0 °F 59% 29.99 in 10.0 mi North 21.9 mph 29.9 mph N/A   Clear
9:50 AM 28.4 °F 14.7 °F 14.0 °F 55% 30.05 in 10.0 mi NW 21.9 mph - N/A   Clear
10:50 AM 32.0 °F 18.1 °F 10.4 °F 41% 30.07 in 10.0 mi North 27.6 mph 33.4 mph N/A   Clear
11:50 AM 32.0 °F 18.4 °F 10.4 °F 41% 30.08 in 10.0 mi NNW 26.5 mph 33.4 mph N/A   Clear
12:50 PM 32.0 °F 18.6 °F 8.6 °F 38% 30.09 in 10.0 mi NNW 25.3 mph 32.2 mph N/A   Clear
1:50 PM 32.0 °F 18.9 °F 8.6 °F 38% 30.11 in 10.0 mi North 24.2 mph 28.8 mph N/A   Clear
2:50 PM 32.0 °F 18.9 °F 10.4 °F 41% 30.12 in 10.0 mi NW 24.2 mph 29.9 mph N/A   Clear
4:50 PM 26.6 °F 14.3 °F 10.4 °F 51% 30.13 in 10.0 mi NNW 16.1 mph - N/A   Clear
5:15 PM 26.6 °F 13.8 °F 10.4 °F 51% 30.14 in 10.0 mi NNW 17.3 mph - N/A   Clear
5:35 PM 24.8 °F 12.4 °F 10.4 °F 54% 30.15 in 10.0 mi NNW 15.0 mph - N/A   Clear
5:45 PM 24.8 °F 11.9 °F 10.4 °F 54% 30.16 in 10.0 mi NNW 16.1 mph - N/A   Clear
5:55 PM 24.8 °F 12.4 °F 10.4 °F 54% 30.18 in 10.0 mi NNW 15.0 mph - N/A   Clear
6:15 PM 24.8 °F 12.4 °F 10.4 °F 54% 30.17 in 10.0 mi NNW 15.0 mph 20.7 mph N/A   Clear
6:35 PM 23.0 °F 9.2 °F 10.4 °F 59% 30.18 in 10.0 mi North 17.3 mph - N/A   Clear
6:55 PM 23.0 °F 8.7 °F 10.4 °F 59% 30.18 in 10.0 mi NNW 18.4 mph - N/A   Clear
7:15 PM 21.2 °F 4.5 °F 10.4 °F 63% 30.17 in 10.0 mi North 24.2 mph - N/A   Clear
7:35 PM 21.2 °F 5.2 °F 10.4 °F 63% 30.19 in 10.0 mi North 21.9 mph 29.9 mph N/A   Clear
7:55 PM 19.4 °F 4.5 °F 10.4 °F 68% 30.19 in 10.0 mi North 17.3 mph 25.3 mph N/A   Clear
8:15 PM 19.4 °F 2.8 °F 10.4 °F 68% 30.18 in 10.0 mi North 21.9 mph 25.3 mph N/A   Clear
8:35 PM 19.4 °F 3.2 °F 10.4 °F 68% 30.18 in 10.0 mi North 20.7 mph 26.5 mph N/A   Clear
9:15 PM 19.4 °F 5.0 °F 10.4 °F 68% 30.18 in 10.0 mi NNW 16.1 mph - N/A   Clear
9:35 PM 19.4 °F 6.0 °F 10.4 °F 68% 30.19 in 10.0 mi North 13.8 mph - N/A   Clear
9:55 PM 19.4 °F 7.2 °F 10.4 °F 68% 30.20 in 10.0 mi North 11.5 mph - N/A   Clear
10:15 PM 19.4 °F 6.0 °F 10.4 °F 68% 30.20 in 10.0 mi North 13.8 mph - N/A   Clear
10:35 PM 19.4 °F 6.0 °F 10.4 °F 68% 30.20 in 10.0 mi North 13.8 mph - N/A   Clear
10:55 PM 19.4 °F 7.2 °F 10.4 °F 68% 30.21 in 10.0 mi NNW 11.5 mph - N/A   Clear
11:15 PM 19.4 °F 7.2 °F 10.4 °F 68% 30.22 in 10.0 mi NNW 11.5 mph - N/A   Clear
11:35 PM 19.4 °F 7.2 °F 10.4 °F 68% 30.22 in 10.0 mi North 11.5 mph - N/A   Clear
11:55 PM 17.6 °F 3.7 °F 10.4 °F 73% 30.21 in 10.0 mi North 13.8 mph - N/A   Clear